Hourly Data Report for April 12, 2017

All times are specified in Local Standard Time (LST). Add 1 hour to adjust for Daylight Saving Time where and when it is observed.

TORONTO CITY
ONTARIO

43°40'00.000" N
79°24'00.000" W
112.50 m
6158355
71508
XTO

Download Data

Hourly Data (April 2017)
Hourly Data Report for April 12, 2017
TIME Temp Definition
°C
Dew Point Definition
°C
Rel Hum Definition
%
Wind Dir Definition
10's deg

Wind Spd Definition
km/h
Visibility Definition
km
Stn Press Definition
kPa
Hmdx Definition


Wind Chill Definition


Weather Definition


00:00 10.1 3.8 65 LegendMM LegendMM   100.70     LegendNANA
01:00 9.5 3.3 65 LegendMM LegendMM   100.71     LegendNANA
02:00 8.7 2.3 64 LegendMM LegendMM   100.77     LegendNANA
03:00 7.6 2.3 69 LegendMM LegendMM   100.79     LegendNANA
04:00 7.0 0.7 64 LegendMM LegendMM   100.86     LegendNANA
05:00 6.7 0.6 65 LegendMM LegendMM   100.88     LegendNANA
06:00 6.4 -0.2 63 LegendMM LegendMM   100.97     LegendNANA
07:00 6.2 0.0 64 LegendMM LegendMM   101.08     LegendNANA
08:00 6.2 -0.1 64 LegendMM LegendMM   101.11     LegendNANA
09:00 6.2 0.5 67 LegendMM LegendMM   101.15     LegendNANA
10:00 7.7 -0.6 56 LegendMM LegendMM   101.15     LegendNANA
11:00 8.2 0.2 57 LegendMM LegendMM   101.17     LegendNANA
12:00 8.6 0.3 56 LegendMM LegendMM   101.16     LegendNANA
13:00 8.8 1.4 60 LegendMM LegendMM   101.18     LegendNANA
14:00 8.9 1.8 61 LegendMM LegendMM   101.19     LegendNANA
15:00 9.1 1.4 58 LegendMM LegendMM   101.22     LegendNANA
16:00 8.3 0.8 59 LegendMM LegendMM   101.28     LegendNANA
17:00 7.9 0.1 58 LegendMM LegendMM   101.31     LegendNANA
18:00 7.4 -0.4 58 LegendMM LegendMM   101.38     LegendNANA
19:00 6.8 -0.9 58 LegendMM LegendMM   101.45     LegendNANA
20:00 6.4 -1.6 57 LegendMM LegendMM   101.56     LegendNANA
21:00 5.6 -2.1 58 LegendMM LegendMM   101.65     LegendNANA
22:00 4.9 -1.9 61 LegendMM LegendMM   101.64     LegendNANA
23:00 4.6 -2.1 62 LegendMM LegendMM   101.65     LegendNANA

Notes on Data Quality.

Legend

  • E = Estimated
  • M = Missing
  • NA = Not Available
Date modified: